| time (UTC) | temp F | wind direction | speed MPH | gust MPH | rain 1hr in | rain 24hr in | rain mn in | humidity % | barometer mb |
| 20260901133532 | 51 | 251 | 0.0 | 2.0 | 0.00 | 0.00 | 0.00 | 78 | 1017.7 |
| 20260901133027 | 51 | 251 | 0.0 | 2.0 | 0.00 | 0.00 | 0.00 | 77 | 1017.7 |
| 20260901132527 | 51 | 248 | 0.0 | 2.0 | 0.00 | 0.00 | 0.00 | 77 | 1017.5 |
| 20260901132024 | 51 | 193 | 0.0 | 2.0 | 0.00 | 0.00 | 0.00 | 78 | 1017.5 |
| 20260901131934 | 51 | 193 | 0.0 | 2.0 | 0.00 | 0.00 | 0.00 | 78 | 1017.5 |
| 20260901131021 | 50 | 239 | 0.0 | 3.0 | 0.00 | 0.00 | 0.00 | 79 | 1017.5 |
| 20260901130522 | 51 | 239 | 0.0 | 3.0 | 0.00 | 0.00 | 0.00 | 79 | 1017.5 |
| 20260901130021 | 51 | 244 | 0.0 | 1.0 | 0.00 | 0.00 | 0.00 | 78 | 1017.4 |
| 20260901125654 | 51 | 297 | 0.0 | 0.0 | 0.00 | 0.00 | 0.00 | 78 | 1017.5 |
| 20260901124518 | 51 | 296 | 0.0 | 2.0 | 0.00 | 0.00 | 0.00 | 76 | 1017.4 |
| 20260901124018 | 51 | 334 | 0.0 | 2.0 | 0.00 | 0.00 | 0.00 | 76 | 1017.4 |
| 20260901123517 | 51 | 329 | 0.0 | 2.0 | 0.00 | 0.00 | 0.00 | 77 | 1017.3 |
| 20260901123015 | 51 | 260 | 0.0 | 7.0 | 0.00 | 0.00 | 0.00 | 77 | 1017.5 |
| 20260901122940 | 50 | 275 | 0.0 | 7.0 | 0.00 | 0.00 | 0.00 | 78 | 1017.4 |
| 20260901122431 | 50 | 281 | 0.0 | 0.0 | 0.00 | 0.00 | 0.00 | 79 | 1017.3 |
| 20260901121513 | 50 | 291 | 0.0 | 0.0 | 0.00 | 0.00 | 0.00 | 79 | 1017.3 |
| 20260901121409 | 50 | 291 | 0.0 | 0.0 | 0.00 | 0.00 | 0.00 | 78 | 1016.9 |
| 20260901120515 | 51 | 291 | 0.0 | 4.0 | 0.00 | 0.00 | 0.00 | 77 | 1016.9 |
| 20260901120012 | 51 | 291 | 0.0 | 4.0 | 0.00 | 0.00 | 0.00 | 77 | 1016.9 |
| 20260901115511 | 50 | 294 | 0.0 | 3.0 | 0.00 | 0.00 | 0.00 | 77 | 1016.8 |
| 20260901115005 | 51 | 278 | 0.0 | 2.0 | 0.00 | 0.00 | 0.00 | 77 | 1016.7 |
| 20260901114501 | 51 | 262 | 1.0 | 8.0 | 0.00 | 0.00 | 0.00 | 76 | 1016.7 |
| 20260901113953 | 51 | 330 | 1.0 | 8.0 | 0.00 | 0.00 | 0.00 | 76 | 1016.7 |
| 20260901113448 | 51 | 327 | 0.0 | 3.0 | 0.00 | 0.00 | 0.00 | 76 | 1016.5 |
| 20260901112941 | 51 | 333 | 0.0 | 5.0 | 0.00 | 0.00 | 0.00 | 76 | 1016.5 |
| 20260901112435 | 51 | 348 | 1.0 | 5.0 | 0.00 | 0.00 | 0.00 | 76 | 1016.4 |
| 20260901111932 | 51 | 334 | 1.0 | 4.0 | 0.00 | 0.00 | 0.00 | 76 | 1016.4 |
| 20260901111423 | 51 | 313 | 1.0 | 9.0 | 0.00 | 0.00 | 0.00 | 76 | 1016.3 |
| 20260901110918 | 51 | 303 | 0.0 | 9.0 | 0.00 | 0.00 | 0.00 | 77 | 1016.3 |
| 20260901110411 | 51 | 295 | 0.0 | 11.0 | 0.00 | 0.00 | 0.00 | 76 | 1016.3 |
| 20260901105905 | 50 | 282 | 0.0 | 11.0 | 0.00 | 0.00 | 0.00 | 77 | 1016.4 |
| 20260901105402 | 50 | 307 | 0.0 | 4.0 | 0.00 | 0.00 | 0.00 | 77 | 1016.5 |
| 20260901105054 | 51 | 306 | 0.0 | 1.0 | 0.00 | 0.00 | 0.00 | 76 | 1016.4 |
| 20260901104955 | 51 | 278 | 0.0 | 2.0 | 0.00 | 0.00 | 0.00 | 76 | 1016.4 |
| 20260901103336 | 51 | 323 | 0.0 | 4.0 | 0.00 | 0.00 | 0.00 | 76 | 1016.2 |
| 20260901103227 | 50 | 296 | 0.0 | 4.0 | 0.00 | 0.00 | 0.00 | 76 | 1016.3 |
| 20260901102324 | 50 | 322 | 0.0 | 4.0 | 0.00 | 0.00 | 0.00 | 78 | 1016.3 |
| 20260901101817 | 50 | 258 | 0.0 | 2.0 | 0.00 | 0.00 | 0.00 | 77 | 1016.4 |
| 20260901101704 | 50 | 274 | 0.0 | 1.0 | 0.00 | 0.00 | 0.00 | 77 | 1016.2 |
| 20260901100807 | 51 | 273 | 0.0 | 1.0 | 0.00 | 0.00 | 0.00 | 76 | 1016.3 |
| 20260901100302 | 51 | 302 | 0.0 | 1.0 | 0.00 | 0.00 | 0.00 | 75 | 1016.2 |
| 20260901095754 | 52 | 302 | 0.0 | 1.0 | 0.00 | 0.00 | 0.00 | 74 | 1016.4 |
| 20260901095247 | 52 | 303 | 0.0 | 4.0 | 0.00 | 0.00 | 0.00 | 74 | 1016.3 |
| 20260901094742 | 52 | 297 | 0.0 | 4.0 | 0.00 | 0.00 | 0.00 | 73 | 1016.3 |
| 20260901094235 | 53 | 319 | 0.0 | 3.0 | 0.00 | 0.00 | 0.00 | 73 | 1016.3 |
| 20260901093732 | 53 | 258 | 0.0 | 4.0 | 0.00 | 0.00 | 0.00 | 73 | 1016.3 |
| 20260901093223 | 52 | 351 | 0.0 | 5.0 | 0.00 | 0.00 | 0.00 | 73 | 1016.3 |
| 20260901092717 | 52 | 343 | 0.0 | 5.0 | 0.00 | 0.00 | 0.00 | 74 | 1016.3 |
| 20260901092211 | 52 | 285 | 0.0 | 4.0 | 0.00 | 0.00 | 0.00 | 74 | 1016.1 |
| 20260901091707 | 52 | 335 | 0.0 | 4.0 | 0.00 | 0.00 | 0.00 | 75 | 1016.1 |
| 20260901091202 | 52 | 17 | 0.0 | 1.0 | 0.00 | 0.00 | 0.00 | 76 | 1015.9 |
| 20260901090653 | 52 | 308 | 0.0 | 1.0 | 0.00 | 0.00 | 0.00 | 76 | 1016.0 |
| 20260901090148 | 52 | 317 | 0.0 | 1.0 | 0.00 | 0.00 | 0.00 | 76 | 1016.0 |
| 20260901085641 | 52 | 322 | 0.0 | 1.0 | 0.00 | 0.00 | 0.00 | 76 | 1015.8 |
| 20260901085533 | 52 | 319 | 0.0 | 2.0 | 0.00 | 0.00 | 0.00 | 76 | 1015.9 |
| 20260901084815 | 52 | 337 | 0.0 | 2.0 | 0.00 | 0.00 | 0.00 | 76 | 1015.7 |
| 20260901083617 | 52 | 303 | 0.0 | 5.0 | 0.00 | 0.00 | 0.00 | 77 | 1015.8 |
| 20260901083111 | 51 | 334 | 0.0 | 5.0 | 0.00 | 0.00 | 0.00 | 78 | 1015.7 |
| 20260901082605 | 51 | 296 | 0.0 | 2.0 | 0.00 | 0.00 | 0.00 | 78 | 1015.8 |
| 20260901082102 | 51 | 296 | 0.0 | 2.0 | 0.00 | 0.00 | 0.00 | 78 | 1015.6 |
| 20260901081554 | 51 | 296 | 0.0 | 1.0 | 0.00 | 0.00 | 0.00 | 77 | 1015.7 |
| 20260901081047 | 52 | 297 | 0.0 | 1.0 | 0.00 | 0.00 | 0.00 | 76 | 1015.5 |
| 20260901080543 | 52 | 318 | 0.0 | 1.0 | 0.00 | 0.00 | 0.00 | 76 | 1015.4 |
| 20260901080041 | 53 | 310 | 0.0 | 3.0 | 0.00 | 0.00 | 0.00 | 75 | 1015.5 |
| 20260901075540 | 53 | 32 | 0.0 | 4.0 | 0.00 | 0.00 | 0.00 | 75 | 1015.4 |
| 20260901075040 | 53 | 326 | 0.0 | 4.0 | 0.00 | 0.00 | 0.00 | 75 | 1015.4 |
| 20260901074541 | 53 | 286 | 0.0 | 2.0 | 0.00 | 0.00 | 0.00 | 74 | 1015.4 |
| 20260901074509 | 53 | 268 | 0.0 | 3.0 | 0.00 | 0.00 | 0.00 | 74 | 1015.2 |
| 20260901073536 | 53 | 23 | 0.0 | 5.0 | 0.00 | 0.00 | 0.00 | 74 | 1015.2 |
| 20260901073434 | 53 | 317 | 0.0 | 5.0 | 0.00 | 0.00 | 0.00 | 74 | 1015.2 |
| 20260901072543 | 53 | 254 | 0.0 | 6.0 | 0.00 | 0.00 | 0.00 | 75 | 1015.2 |
| 20260901072053 | 53 | 329 | 0.0 | 6.0 | 0.00 | 0.00 | 0.00 | 75 | 1015.1 |
| 20260901071553 | 53 | 344 | 0.0 | 2.0 | 0.00 | 0.00 | 0.00 | 76 | 1015.0 |
| 20260901071038 | 53 | 329 | 0.0 | 1.0 | 0.00 | 0.00 | 0.00 | 76 | 1015.1 |
| 20260901070535 | 53 | 313 | 0.0 | 1.0 | 0.00 | 0.00 | 0.00 | 76 | 1015.1 |
| 20260901070037 | 52 | 317 | 0.0 | 1.0 | 0.00 | 0.00 | 0.00 | 78 | 1015.1 |
| 20260901065536 | 52 | 304 | 0.0 | 0.0 | 0.00 | 0.00 | 0.00 | 80 | 1015.1 |
| 20260901065032 | 51 | 279 | 0.0 | 0.0 | 0.00 | 0.00 | 0.00 | 82 | 1014.9 |
| 20260901064930 | 51 | 275 | 0.0 | 0.0 | 0.00 | 0.00 | 0.00 | 85 | 1014.8 |
| 20260901064031 | 51 | 270 | 0.0 | 0.0 | 0.00 | 0.00 | 0.00 | 84 | 1014.8 |
| 20260901063532 | 51 | 270 | 0.0 | 1.0 | 0.00 | 0.00 | 0.00 | 84 | 1014.7 |
| 20260901063030 | 51 | 270 | 0.0 | 1.0 | 0.00 | 0.00 | 0.00 | 83 | 1014.7 |
| 20260901062531 | 51 | 271 | 0.0 | 1.0 | 0.00 | 0.00 | 0.00 | 82 | 1014.5 |
| 20260901062428 | 51 | 272 | 0.0 | 0.0 | 0.00 | 0.00 | 0.00 | 82 | 1014.4 |
| 20260901061532 | 51 | 233 | 0.0 | 0.0 | 0.00 | 0.00 | 0.00 | 81 | 1014.4 |
| 20260901061030 | 51 | 233 | 0.0 | 0.0 | 0.00 | 0.00 | 0.00 | 80 | 1014.3 |
| 20260901060531 | 51 | 233 | 0.0 | 0.0 | 0.00 | 0.00 | 0.00 | 79 | 1014.3 |
| 20260901060033 | 52 | 233 | 0.0 | 0.0 | 0.00 | 0.00 | 0.00 | 77 | 1014.1 |
| 20260901055529 | 53 | 233 | 0.0 | 0.0 | 0.00 | 0.00 | 0.00 | 75 | 1014.0 |
| 20260901055033 | 53 | 233 | 0.0 | 0.0 | 0.00 | 0.00 | 0.00 | 74 | 1014.0 |
| 20260901054531 | 54 | 233 | 0.0 | 0.0 | 0.00 | 0.00 | 0.00 | 71 | 1014.0 |
| 20260901054031 | 55 | 233 | 0.0 | 0.0 | 0.00 | 0.00 | 0.00 | 68 | 1013.9 |
| 20260901053933 | 56 | 233 | 0.0 | 1.0 | 0.00 | 0.00 | 0.00 | 66 | 1013.8 |
| 20260901053027 | 56 | 233 | 0.0 | 1.0 | 0.00 | 0.00 | 0.00 | 63 | 1013.7 |
| 20260901052934 | 56 | 284 | 0.0 | 2.0 | 0.00 | 0.00 | 0.00 | 63 | 1013.5 |
| 20260901052025 | 57 | 303 | 1.0 | 3.0 | 0.00 | 0.00 | 0.00 | 61 | 1013.4 |
| 20260901051524 | 57 | 321 | 1.0 | 7.0 | 0.00 | 0.00 | 0.00 | 60 | 1013.2 |
| 20260901051420 | 57 | 309 | 1.0 | 8.0 | 0.00 | 0.00 | 0.00 | 59 | 1013.2 |
| 20260901050523 | 57 | 318 | 1.0 | 8.0 | 0.00 | 0.00 | 0.00 | 59 | 1013.0 |
| 20260901050018 | 57 | 306 | 1.0 | 6.0 | 0.00 | 0.00 | 0.00 | 59 | 1012.9 |
| 20260901045513 | 58 | 276 | 1.0 | 7.0 | 0.00 | 0.00 | 0.00 | 58 | 1012.7 |
| 20260901045007 | 58 | 323 | 1.0 | 7.0 | 0.00 | 0.00 | 0.00 | 58 | 1012.8 |
| 20260901044459 | 58 | 355 | 0.0 | 4.0 | 0.00 | 0.00 | 0.00 | 58 | 1012.8 |
| 20260901043955 | 59 | 257 | 1.0 | 8.0 | 0.00 | 0.00 | 0.00 | 57 | 1012.7 |
| 20260901043447 | 60 | 340 | 1.0 | 8.0 | 0.00 | 0.00 | 0.00 | 58 | 1012.8 |
| 20260901042941 | 61 | 296 | 0.0 | 3.0 | 0.00 | 0.00 | 0.00 | 57 | 1012.8 |
| 20260901042436 | 62 | 330 | 1.0 | 3.0 | 0.00 | 0.00 | 0.00 | 55 | 1012.6 |
| 20260901042311 | 62 | 296 | 1.0 | 3.0 | 0.00 | 0.00 | 0.00 | 54 | 1012.5 |
| 20260901041422 | 63 | 331 | 1.0 | 5.0 | 0.00 | 0.00 | 0.00 | 54 | 1012.6 |
| 20260901040916 | 63 | 322 | 1.0 | 5.0 | 0.00 | 0.00 | 0.00 | 54 | 1012.5 |
| 20260901040409 | 63 | 210 | 1.0 | 11.0 | 0.00 | 0.00 | 0.00 | 51 | 1012.4 |
| 20260901035903 | 63 | 298 | 1.0 | 11.0 | 0.00 | 0.00 | 0.00 | 53 | 1012.2 |
| 20260901035357 | 63 | 328 | 1.0 | 8.0 | 0.00 | 0.00 | 0.00 | 52 | 1012.1 |
| 20260901034852 | 63 | 355 | 2.0 | 9.0 | 0.00 | 0.00 | 0.00 | 51 | 1012.1 |
| 20260901034346 | 63 | 260 | 2.0 | 9.0 | 0.00 | 0.00 | 0.00 | 52 | 1012.1 |
| 20260901033840 | 63 | 255 | 2.0 | 7.0 | 0.00 | 0.00 | 0.00 | 51 | 1012.2 |
| 20260901033334 | 64 | 352 | 1.0 | 8.0 | 0.00 | 0.00 | 0.00 | 50 | 1012.1 |
| 20260901032828 | 64 | 276 | 2.0 | 9.0 | 0.00 | 0.00 | 0.00 | 50 | 1012.2 |
| 20260901032322 | 64 | 59 | 1.0 | 9.0 | 0.00 | 0.00 | 0.00 | 50 | 1012.4 |
| 20260901032231 | 65 | 350 | 1.0 | 8.0 | 0.00 | 0.00 | 0.00 | 52 | 1012.3 |
| 20260901031758 | 65 | 338 | 1.0 | 8.0 | 0.00 | 0.00 | 0.00 | 54 | 1012.5 |
| 20260901030816 | 65 | 216 | 1.0 | 5.0 | 0.00 | 0.00 | 0.00 | 52 | 1012.4 |
| 20260901030301 | 65 | 31 | 1.0 | 10.0 | 0.00 | 0.00 | 0.00 | 52 | 1012.3 |
| 20260901025752 | 65 | 338 | 1.0 | 10.0 | 0.00 | 0.00 | 0.00 | 52 | 1012.4 |
| 20260901025246 | 65 | 334 | 2.0 | 8.0 | 0.00 | 0.00 | 0.00 | 52 | 1012.2 |
| 20260901024749 | 65 | 321 | 2.0 | 8.0 | 0.00 | 0.00 | 0.00 | 54 | 1012.2 |
| 20260901024234 | 65 | 231 | 1.0 | 8.0 | 0.00 | 0.00 | 0.00 | 50 | 1012.0 |
| 20260901023727 | 65 | 284 | 1.0 | 8.0 | 0.00 | 0.00 | 0.00 | 52 | 1012.0 |
| 20260901023221 | 66 | 0 | 1.0 | 4.0 | 0.00 | 0.00 | 0.00 | 51 | 1012.0 |
| 20260901022719 | 66 | 335 | 1.0 | 4.0 | 0.00 | 0.00 | 0.00 | 50 | 1012.0 |
| 20260901022630 | 66 | 303 | 1.0 | 4.0 | 0.00 | 0.00 | 0.00 | 53 | 1012.0 |
| 20260901021719 | 65 | 303 | 2.0 | 8.0 | 0.00 | 0.00 | 0.00 | 51 | 1012.0 |
| 20260901021220 | 65 | 310 | 2.0 | 8.0 | 0.00 | 0.00 | 0.00 | 52 | 1012.0 |
| 20260901020712 | 66 | 6 | 1.0 | 6.0 | 0.00 | 0.00 | 0.00 | 50 | 1012.0 |
| 20260901020211 | 65 | 303 | 1.0 | 6.0 | 0.00 | 0.00 | 0.00 | 50 | 1012.0 |
| 20260901015712 | 65 | 279 | 1.0 | 6.0 | 0.00 | 0.00 | 0.00 | 52 | 1012.0 |
| 20260901015209 | 65 | 349 | 1.0 | 6.0 | 0.00 | 0.00 | 0.00 | 51 | 1011.9 |
| 20260901014711 | 65 | 30 | 1.0 | 7.0 | 0.00 | 0.00 | 0.00 | 53 | 1012.0 |
| 20260901014611 | 65 | 260 | 1.0 | 7.0 | 0.00 | 0.00 | 0.00 | 53 | 1012.0 |
| 20260901013711 | 64 | 350 | 2.0 | 11.0 | 0.00 | 0.00 | 0.00 | 52 | 1012.1 |
| 20260901013211 | 64 | 293 | 2.0 | 11.0 | 0.00 | 0.00 | 0.00 | 51 | 1012.0 |
| 20260901012707 | 64 | 258 | 2.0 | 9.0 | 0.00 | 0.00 | 0.00 | 55 | 1012.3 |
| 20260901012212 | 64 | 313 | 2.0 | 9.0 | 0.00 | 0.00 | 0.00 | 55 | 1012.3 |
| 20260901011712 | 64 | 334 | 2.0 | 10.0 | 0.00 | 0.00 | 0.00 | 56 | 1012.3 |
| 20260901011354 | 64 | 326 | 2.0 | 10.0 | 0.00 | 0.00 | 0.00 | 56 | 1012.3 |
| 20260901010205 | 64 | 263 | 1.0 | 4.0 | 0.00 | 0.00 | 0.00 | 61 | 1012.6 |
| 20260901005705 | 64 | 6 | 1.0 | 4.0 | 0.00 | 0.00 | 0.00 | 55 | 1012.6 |
| 20260901005204 | 65 | 336 | 1.0 | 4.0 | 0.00 | 0.00 | 0.00 | 54 | 1012.9 |
| 20260901005124 | 65 | 336 | 0.0 | 4.0 | 0.00 | 0.00 | 0.00 | 55 | 1013.0 |
| 20260901004203 | 64 | 358 | 0.0 | 5.0 | 0.00 | 0.00 | 0.00 | 58 | 1013.0 |
| 20260901003704 | 63 | 346 | 1.0 | 5.0 | 0.00 | 0.00 | 0.00 | 57 | 1013.2 |
| 20260901003604 | 63 | 359 | 1.0 | 6.0 | 0.00 | 0.00 | 0.00 | 59 | 1013.3 |
| 20260901002659 | 63 | 309 | 2.0 | 7.0 | 0.00 | 0.00 | 0.00 | 57 | 1013.4 |
| 20260901002157 | 63 | 296 | 2.0 | 8.0 | 0.00 | 0.00 | 0.00 | 59 | 1013.3 |
| 20260901001658 | 63 | 269 | 2.0 | 8.0 | 0.00 | 0.00 | 0.00 | 55 | 1013.2 |
| 20260901001157 | 64 | 355 | 2.0 | 7.0 | 0.00 | 0.00 | 0.00 | 53 | 1013.2 |
| 20260901000658 | 65 | 5 | 2.0 | 7.0 | 0.00 | 0.00 | 0.00 | 52 | 1013.4 |
| 20260901000601 | 65 | 33 | 1.0 | 4.0 | 0.00 | 0.00 | 0.00 | 57 | 1013.4 |
| 20260831235657 | 64 | 2 | 1.0 | 4.0 | 0.00 | 0.00 | 0.00 | 57 | 1013.3 |
| 20260831235601 | 64 | 17 | 1.0 | 8.0 | 0.00 | 0.00 | 0.00 | 56 | 1013.3 |
| 20260831234656 | 63 | 300 | 1.0 | 8.0 | 0.00 | 0.00 | 0.00 | 56 | 1013.2 |
| 20260831234157 | 62 | 293 | 1.0 | 5.0 | 0.00 | 0.00 | 0.00 | 58 | 1013.3 |
| 20260831233657 | 61 | 277 | 1.0 | 5.0 | 0.00 | 0.00 | 0.00 | 62 | 1013.3 |
| 20260831233158 | 61 | 52 | 1.0 | 8.0 | 0.00 | 0.00 | 0.00 | 59 | 1013.3 |
| 20260831232658 | 61 | 331 | 1.0 | 8.0 | 0.00 | 0.00 | 0.00 | 57 | 1013.1 |
| 20260831232157 | 61 | 317 | 1.0 | 5.0 | 0.00 | 0.00 | 0.00 | 56 | 1013.3 |
| 20260831231657 | 61 | 296 | 1.0 | 7.0 | 0.00 | 0.00 | 0.00 | 56 | 1013.1 |
| 20260831231157 | 61 | 298 | 2.0 | 7.0 | 0.00 | 0.00 | 0.00 | 57 | 1013.2 |
| 20260831230656 | 62 | 289 | 2.0 | 7.0 | 0.00 | 0.00 | 0.00 | 56 | 1013.2 |
| 20260831230215 | 61 | 17 | 2.0 | 10.0 | 0.00 | 0.00 | 0.00 | 57 | 1013.2 |
| 20260831225657 | 62 | 35 | 2.0 | 10.0 | 0.00 | 0.00 | 0.00 | 54 | 1013.2 |
| 20260831225213 | 61 | 16 | 2.0 | 8.0 | 0.00 | 0.00 | 0.00 | 60 | 1013.0 |
| 20260831225153 | 62 | 7 | 2.0 | 8.0 | 0.00 | 0.00 | 0.00 | 61 | 1013.0 |
| 20260831224152 | 60 | 280 | 2.0 | 8.0 | 0.00 | 0.00 | 0.00 | 62 | 1013.1 |
| 20260831224103 | 60 | 339 | 1.0 | 7.0 | 0.00 | 0.00 | 0.00 | 58 | 1013.0 |
| 20260831223335 | 60 | 350 | 1.0 | 8.0 | 0.00 | 0.00 | 0.00 | 61 | 1013.1 |
| 20260831222150 | 58 | 272 | 1.0 | 9.0 | 0.00 | 0.00 | 0.00 | 64 | 1013.1 |
| 20260831221651 | 58 | 352 | 1.0 | 5.0 | 0.00 | 0.00 | 0.00 | 64 | 1012.9 |
| 20260831221614 | 58 | 343 | 1.0 | 5.0 | 0.00 | 0.00 | 0.00 | 63 | 1013.1 |
| 20260831220649 | 58 | 296 | 1.0 | 5.0 | 0.00 | 0.00 | 0.00 | 63 | 1013.1 |
| 20260831220142 | 57 | 15 | 1.0 | 13.0 | 0.00 | 0.00 | 0.00 | 64 | 1013.1 |
| 20260831215637 | 57 | 51 | 1.0 | 13.0 | 0.00 | 0.00 | 0.00 | 62 | 1013.2 |
| 20260831215131 | 58 | 257 | 1.0 | 8.0 | 0.00 | 0.00 | 0.00 | 62 | 1013.1 |
| 20260831214626 | 57 | 250 | 1.0 | 7.0 | 0.00 | 0.00 | 0.00 | 64 | 1013.0 |
| 20260831214119 | 57 | 264 | 2.0 | 7.0 | 0.00 | 0.00 | 0.00 | 64 | 1012.7 |
| 20260831213612 | 57 | 23 | 1.0 | 6.0 | 0.00 | 0.00 | 0.00 | 63 | 1012.7 |
| 20260831213107 | 56 | 246 | 1.0 | 6.0 | 0.00 | 0.00 | 0.00 | 64 | 1012.8 |
| 20260831212600 | 56 | 290 | 2.0 | 9.0 | 0.00 | 0.00 | 0.00 | 65 | 1012.7 |
| 20260831212055 | 57 | 23 | 2.0 | 9.0 | 0.00 | 0.00 | 0.00 | 63 | 1012.8 |
| 20260831211549 | 57 | 342 | 2.0 | 8.0 | 0.00 | 0.00 | 0.00 | 63 | 1012.6 |
| 20260831211040 | 57 | 0 | 2.0 | 10.0 | 0.00 | 0.00 | 0.00 | 62 | 1012.6 |
| 20260831211009 | 58 | 343 | 1.0 | 10.0 | 0.00 | 0.00 | 0.00 | 60 | 1012.5 |
| 20260831210028 | 58 | 322 | 0.0 | 5.0 | 0.00 | 0.00 | 0.00 | 61 | 1012.4 |
| 20260831205522 | 58 | 331 | 1.0 | 5.0 | 0.00 | 0.00 | 0.00 | 64 | 1012.3 |
| 20260831205017 | 57 | 0 | 1.0 | 5.0 | 0.00 | 0.00 | 0.00 | 59 | 1012.3 |
| 20260831204511 | 58 | 333 | 0.0 | 4.0 | 0.00 | 0.00 | 0.00 | 62 | 1012.2 |
| 20260831204007 | 57 | 339 | 0.0 | 4.0 | 0.00 | 0.00 | 0.00 | 62 | 1012.1 |
| 20260831203458 | 57 | 306 | 0.0 | 2.0 | 0.00 | 0.00 | 0.00 | 61 | 1011.9 |
| 20260831202952 | 57 | 322 | 0.0 | 1.0 | 0.00 | 0.00 | 0.00 | 65 | 1011.9 |
| 20260831202446 | 56 | 320 | 0.0 | 2.0 | 0.00 | 0.00 | 0.00 | 64 | 1011.6 |
| 20260831201940 | 56 | 320 | 0.0 | 3.0 | 0.00 | 0.00 | 0.00 | 63 | 1011.8 |
| 20260831201440 | 56 | 323 | 0.0 | 3.0 | 0.00 | 0.00 | 0.00 | 63 | 1011.7 |
| 20260831200934 | 56 | 343 | 0.0 | 6.0 | 0.00 | 0.00 | 0.00 | 65 | 1011.8 |
| 20260831200432 | 55 | 294 | 1.0 | 7.0 | 0.00 | 0.00 | 0.00 | 65 | 1011.7 |
| 20260831195934 | 54 | 354 | 0.0 | 7.0 | 0.00 | 0.00 | 0.00 | 65 | 1011.6 |
| 20260831195840 | 54 | 262 | 1.0 | 6.0 | 0.00 | 0.00 | 0.00 | 67 | 1011.5 |
| 20260831194932 | 54 | 289 | 1.0 | 7.0 | 0.00 | 0.00 | 0.00 | 68 | 1011.3 |
| 20260831194434 | 53 | 290 | 1.0 | 7.0 | 0.00 | 0.00 | 0.00 | 67 | 1011.3 |
| 20260831193932 | 53 | 297 | 1.0 | 5.0 | 0.00 | 0.00 | 0.00 | 67 | 1011.1 |
| 20260831193430 | 53 | 277 | 1.0 | 5.0 | 0.00 | 0.00 | 0.00 | 69 | 1011.1 |
| 20260831193329 | 53 | 288 | 0.0 | 4.0 | 0.00 | 0.00 | 0.00 | 69 | 1010.8 |
| 20260831192428 | 53 | 323 | 0.0 | 3.0 | 0.00 | 0.00 | 0.00 | 70 | 1010.9 |
| 20260831191925 | 53 | 292 | 0.0 | 5.0 | 0.00 | 0.00 | 0.00 | 71 | 1010.8 |
| 20260831191815 | 52 | 245 | 0.0 | 6.0 | 0.00 | 0.00 | 0.00 | 70 | 1010.6 |
| 20260831190931 | 52 | 331 | 0.0 | 6.0 | 0.00 | 0.00 | 0.00 | 71 | 1010.5 |
| 20260831190433 | 52 | 289 | 0.0 | 2.0 | 0.00 | 0.00 | 0.00 | 72 | 1010.2 |
| 20260831185927 | 51 | 343 | 1.0 | 7.0 | 0.00 | 0.00 | 0.00 | 72 | 1010.3 |
| 20260831185424 | 51 | 326 | 1.0 | 7.0 | 0.00 | 0.00 | 0.00 | 73 | 1010.3 |
| 20260831184921 | 50 | 293 | 0.0 | 3.0 | 0.00 | 0.00 | 0.00 | 76 | 1010.1 |
| 20260831184421 | 50 | 290 | 0.0 | 1.0 | 0.00 | 0.00 | 0.00 | 76 | 1010.2 |
| 20260831183922 | 50 | 337 | 0.0 | 1.0 | 0.00 | 0.00 | 0.00 | 74 | 1009.9 |
| 20260831183422 | 50 | 324 | 0.0 | 3.0 | 0.00 | 0.00 | 0.00 | 74 | 1010.0 |
| 20260831182919 | 50 | 318 | 0.0 | 3.0 | 0.00 | 0.00 | 0.00 | 74 | 1009.9 |
| 20260831182420 | 50 | 329 | 0.0 | 3.0 | 0.00 | 0.00 | 0.00 | 74 | 1009.9 |
| 20260831181922 | 50 | 265 | 0.0 | 2.0 | 0.00 | 0.00 | 0.00 | 76 | 1009.8 |
| 20260831181650 | 49 | 297 | 0.0 | 3.0 | 0.00 | 0.00 | 0.00 | 77 | 1009.7 |
| 20260831181530 | 49 | 309 | 0.0 | 2.0 | 0.00 | 0.00 | 0.00 | 77 | 1009.8 |
| 20260831175922 | 48 | 297 | 0.0 | 1.0 | 0.00 | 0.00 | 0.00 | 78 | 1009.6 |
| 20260831175418 | 48 | 265 | 0.0 | 1.0 | 0.00 | 0.00 | 0.00 | 79 | 1009.5 |
| 20260831174919 | 48 | 265 | 0.0 | 1.0 | 0.00 | 0.00 | 0.00 | 78 | 1009.4 |
| 20260831174417 | 49 | 287 | 0.0 | 0.0 | 0.00 | 0.00 | 0.00 | 77 | 1009.2 |
| 20260831173917 | 49 | 286 | 0.0 | 1.0 | 0.00 | 0.00 | 0.00 | 76 | 1009.3 |
| 20260831173823 | 49 | 286 | 0.0 | 1.0 | 0.00 | 0.00 | 0.00 | 74 | 1009.1 |
| 20260831172915 | 50 | 263 | 0.0 | 1.0 | 0.00 | 0.00 | 0.00 | 74 | 1009.0 |
| 20260831172416 | 50 | 317 | 0.0 | 5.0 | 0.00 | 0.00 | 0.00 | 74 | 1008.8 |
| 20260831171915 | 49 | 325 | 0.0 | 5.0 | 0.00 | 0.00 | 0.00 | 75 | 1008.8 |
| 20260831171415 | 50 | 297 | 0.0 | 5.0 | 0.00 | 0.00 | 0.00 | 75 | 1008.6 |
| 20260831170916 | 50 | 296 | 0.0 | 5.0 | 0.00 | 0.00 | 0.00 | 73 | 1008.4 |
| 20260831170428 | 51 | 337 | 0.0 | 4.0 | 0.00 | 0.00 | 0.00 | 73 | 1008.4 |
| 20260831170112 | 51 | 312 | 1.0 | 8.0 | 0.00 | 0.00 | 0.00 | 73 | 1008.4 |
| 20260831164915 | 49 | 195 | 0.0 | 4.0 | 0.00 | 0.00 | 0.00 | 77 | 1008.3 |
| 20260831164811 | 49 | 296 | 0.0 | 1.0 | 0.00 | 0.00 | 0.00 | 77 | 1008.3 |
| 20260831163914 | 50 | 281 | 0.0 | 0.0 | 0.00 | 0.00 | 0.00 | 76 | 1008.3 |
| 20260831163413 | 50 | 281 | 0.0 | 1.0 | 0.00 | 0.00 | 0.00 | 75 | 1008.1 |
| 20260831162911 | 51 | 242 | 0.0 | 1.0 | 0.00 | 0.00 | 0.00 | 75 | 1008.1 |
| 20260831162412 | 51 | 273 | 0.0 | 1.0 | 0.00 | 0.00 | 0.00 | 73 | 1008.1 |
| 20260831161924 | 52 | 272 | 0.0 | 3.0 | 0.00 | 0.00 | 0.00 | 71 | 1008.1 |
| 20260831161409 | 52 | 319 | 1.0 | 4.0 | 0.00 | 0.00 | 0.00 | 71 | 1007.9 |
| 20260831160925 | 52 | 267 | 0.0 | 4.0 | 0.00 | 0.00 | 0.00 | 73 | 1008.0 |
| 20260831160422 | 52 | 293 | 0.0 | 3.0 | 0.00 | 0.00 | 0.00 | 74 | 1007.9 |
| 20260831160341 | 52 | 318 | 0.0 | 4.0 | 0.00 | 0.00 | 0.00 | 73 | 1007.9 |
| 20260831155415 | 52 | 278 | 0.0 | 4.0 | 0.00 | 0.00 | 0.00 | 74 | 1007.8 |
| 20260831154909 | 52 | 300 | 0.0 | 3.0 | 0.00 | 0.00 | 0.00 | 76 | 1008.0 |
| 20260831154403 | 52 | 288 | 0.0 | 4.0 | 0.00 | 0.00 | 0.00 | 75 | 1007.9 |
| 20260831153857 | 52 | 242 | 0.0 | 1.0 | 0.00 | 0.00 | 0.00 | 76 | 1007.7 |
| 20260831153350 | 53 | 242 | 0.0 | 1.0 | 0.00 | 0.00 | 0.00 | 75 | 1007.6 |
| 20260831152845 | 53 | 255 | 0.0 | 3.0 | 0.00 | 0.00 | 0.00 | 74 | 1007.6 |
| 20260831152339 | 53 | 300 | 1.0 | 6.0 | 0.00 | 0.00 | 0.00 | 74 | 1007.5 |
| 20260831151834 | 53 | 248 | 0.0 | 6.0 | 0.00 | 0.00 | 0.00 | 74 | 1007.7 |
| 20260831151327 | 53 | 262 | 0.0 | 2.0 | 0.00 | 0.00 | 0.00 | 74 | 1007.7 |
| 20260831150820 | 54 | 240 | 0.0 | 5.0 | 0.00 | 0.00 | 0.00 | 74 | 1007.7 |
| 20260831150315 | 54 | 277 | 1.0 | 5.0 | 0.00 | 0.00 | 0.00 | 74 | 1007.8 |
| 20260831145954 | 54 | 346 | 1.0 | 5.0 | 0.00 | 0.00 | 0.00 | 74 | 1007.9 |
| 20260831144745 | 54 | 342 | 1.0 | 5.0 | 0.00 | 0.00 | 0.00 | 75 | 1007.7 |
| 20260831144239 | 53 | 305 | 0.0 | 4.0 | 0.00 | 0.00 | 0.00 | 75 | 1007.7 |
| 20260831143746 | 53 | 294 | 0.0 | 2.0 | 0.00 | 0.00 | 0.00 | 76 | 1007.7 |
| 20260831143239 | 54 | 280 | 0.0 | 1.0 | 0.00 | 0.00 | 0.00 | 77 | 1007.7 |
| 20260831142733 | 54 | 279 | 0.0 | 1.0 | 0.00 | 0.00 | 0.00 | 76 | 1007.7 |
| 20260831142227 | 54 | 272 | 0.0 | 5.0 | 0.00 | 0.00 | 0.00 | 76 | 1007.7 |
| 20260831142125 | 54 | 286 | 1.0 | 5.0 | 0.00 | 0.00 | 0.00 | 75 | 1007.8 |
| 20260831141215 | 54 | 279 | 1.0 | 4.0 | 0.00 | 0.00 | 0.00 | 76 | 1007.9 |
| 20260831140656 | 54 | 257 | 1.0 | 8.0 | 0.00 | 0.00 | 0.00 | 76 | 1007.9 |
| 20260831140152 | 54 | 266 | 1.0 | 8.0 | 0.00 | 0.00 | 0.00 | 76 | 1008.0 |
| 20260831140053 | 54 | 272 | 0.0 | 5.0 | 0.00 | 0.00 | 0.00 | 76 | 1008.3 |
| 20260831135139 | 54 | 289 | 1.0 | 9.0 | 0.00 | 0.00 | 0.00 | 76 | 1008.2 |
| 20260831134632 | 54 | 276 | 1.0 | 9.0 | 0.00 | 0.00 | 0.00 | 76 | 1008.2 |
| 20260831134327 | 54 | 213 | 0.0 | 5.0 | 0.00 | 0.00 | 0.00 | 76 | 1008.1 |